Location: *
(50.2903°S, 172.5375°W)
Time: 18:45:02
(UTC+00:00)

Cosmos 2082 Rocket - Pass Details

Date: 17 November 2019
Orbit: 833 x 854 km, 71.0° (Epoch: 11 December)

Event Time Altitude Azimuth Distance (km) Brightness Sun altitude
Rises 13:59:53 0° 220° (SW) 3,434 5.5 -11.8°
Reaches altitude 10° 14:03:03 10° 237° (WSW) 2,495 4.6 -11.5°
Maximum altitude 14:06:51 19° 279° (W) 1,953 3.7 -11.1°
Enters shadow 14:09:28 14° 311° (NW) 2,221 3.7 -10.8°
